TimeCST,TemperatureF,Dew PointF,Humidity,Sea Level PressureIn,VisibilityMPH,Wind Direction,Wind SpeedMPH,Gust SpeedMPH,PrecipitationIn,Events,Conditions,WindDirDegrees,DateUTC
12:55 AM,32.7,32.5,99,29.33,10.0,West,4.6,-,N/A,,Mostly Cloudy,270,2012-12-03 06:55:00
1:55 AM,34.7,34.3,99,29.35,10.0,West,10.4,-,N/A,,Clear,270,2012-12-03 07:55:00
2:55 AM,41.2,36.7,84,29.41,10.0,WNW,17.3,-,N/A,,Clear,290,2012-12-03 08:55:00
3:55 AM,41.2,38.1,89,29.43,10.0,West,13.8,-,0.00,,Light Drizzle,280,2012-12-03 09:55:00
4:55 AM,41.2,37.2,86,29.47,10.0,West,17.3,-,0.00,,Scattered Clouds,280,2012-12-03 10:55:00
5:55 AM,40.6,34.2,78,29.50,10.0,WNW,19.6,-,N/A,,Partly Cloudy,290,2012-12-03 11:55:00
6:55 AM,39.2,32.7,78,29.52,10.0,WNW,17.3,-,N/A,,Clear,290,2012-12-03 12:55:00
7:55 AM,38.3,31.3,76,29.55,10.0,WNW,21.9,27.6,N/A,,Clear,290,2012-12-03 13:55:00
8:55 AM,36.3,30.7,80,29.58,10.0,WNW,13.8,-,N/A,,Clear,300,2012-12-03 14:55:00
9:55 AM,32.7,27.9,82,29.63,10.0,WNW,21.9,29.9,N/A,,Partly Cloudy,300,2012-12-03 15:55:00
10:55 AM,32.0,25.3,76,29.66,10.0,WNW,27.6,34.5,N/A,,Scattered Clouds,290,2012-12-03 16:55:00
11:35 AM,32.0,24.8,75,29.68,10.0,West,25.3,29.9,N/A,,Mostly Cloudy,280,2012-12-03 17:35:00
11:39 AM,32.0,23.0,69,29.68,10.0,West,24.2,32.2,N/A,,Mostly Cloudy,280,2012-12-03 17:39:00
11:40 AM,32.0,23.0,69,29.68,10.0,West,24.2,32.2,N/A,,Mostly Cloudy,280,2012-12-03 17:40:00
11:47 AM,32.0,23.0,69,29.67,10.0,West,31.1,34.5,N/A,,Scattered Clouds,280,2012-12-03 17:47:00
11:55 AM,31.1,22.5,70,29.67,10.0,West,27.6,38.0,N/A,,Scattered Clouds,280,2012-12-03 17:55:00
12:53 PM,28.4,19.4,69,29.72,10.0,West,23.0,33.4,N/A,,Mostly Cloudy,280,2012-12-03 18:53:00
12:55 PM,27.9,19.6,71,29.72,10.0,West,21.9,33.4,N/A,,Mostly Cloudy,280,2012-12-03 18:55:00
1:55 PM,25.2,16.2,69,29.76,10.0,WNW,25.3,32.2,N/A,,Overcast,300,2012-12-03 19:55:00
2:55 PM,22.3,13.1,68,29.79,10.0,WNW,25.3,31.1,N/A,,Mostly Cloudy,300,2012-12-03 20:55:00
2:59 PM,23.0,12.2,63,29.80,10.0,WNW,25.3,31.1,N/A,,Scattered Clouds,300,2012-12-03 20:59:00
3:55 PM,20.7,11.5,68,29.84,10.0,WNW,23.0,35.7,N/A,,Partly Cloudy,300,2012-12-03 21:55:00
4:55 PM,18.9,10.9,71,29.85,10.0,WNW,21.9,29.9,N/A,,Clear,300,2012-12-03 22:55:00
5:55 PM,17.1,9.9,73,29.90,10.0,WNW,18.4,-,N/A,,Clear,300,2012-12-03 23:55:00
6:55 PM,16.0,9.5,76,29.93,10.0,WNW,20.7,28.8,N/A,,Clear,300,2012-12-04 00:55:00
7:55 PM,14.5,8.2,76,29.97,10.0,NW,17.3,24.2,N/A,,Clear,320,2012-12-04 01:55:00
8:55 PM,14.4,8.1,76,29.98,10.0,NW,23.0,34.5,N/A,,Clear,310,2012-12-04 02:55:00
9:55 PM,13.5,7.5,77,30.04,10.0,NW,13.8,-,N/A,,Clear,310,2012-12-04 03:55:00
10:55 PM,12.7,6.6,77,30.05,10.0,NW,13.8,20.7,N/A,,Clear,310,2012-12-04 04:55:00
11:55 PM,11.8,5.7,76,30.08,10.0,WNW,11.5,-,N/A,,Clear,290,2012-12-04 05:55:00